N92TH KHND-KMYF

Flight info

Callsign N92TH
Flight time 0h 37m
Altitude 36000
Route OYODA2 LVELL MOMAR BARET
Aircraft C750/M-SBDE3FGHRWXY/S

Departure

Time 2026-05-07 12:08
Airport Henderson Executive Airport (KHND)

Arrival

Time 2026-05-07 12:46
Airport Montgomery-Gibbs Executive Airport (KMYF)
Time Latitude Longitude Altitude Speed Heading
2026-05-07 11:58 35.97753 -115.13760 2431 ft 0 kts 175°
2026-05-07 12:06 35.97736 -115.13745 2432 ft 6 kts 86°
2026-05-07 12:06 35.97742 -115.13692 2432 ft 6 kts 76°
2026-05-07 12:06 35.97797 -115.13637 2430 ft 19 kts
2026-05-07 12:06 35.97944 -115.13635 2426 ft 22 kts
2026-05-07 12:07 35.98037 -115.13635 2423 ft 11 kts 359°
2026-05-07 12:07 35.98082 -115.13581 2418 ft 10 kts 86°
2026-05-07 12:07 35.98057 -115.13544 2421 ft 3 kts 156°
2026-05-07 12:07 35.97996 -115.13534 2425 ft 21 kts 180°
2026-05-07 12:08 35.97485 -115.13540 2444 ft 127 kts 180°
2026-05-07 12:08 35.96534 -115.13566 3010 ft 145 kts 182°
2026-05-07 12:08 35.95468 -115.13555 3625 ft 160 kts 178°
2026-05-07 12:08 35.94338 -115.13863 4111 ft 182 kts 207°
2026-05-07 12:09 35.93188 -115.14748 4565 ft 207 kts 212°
2026-05-07 12:09 35.91893 -115.15729 4993 ft 230 kts 211°
2026-05-07 12:09 35.90323 -115.16446 5262 ft 257 kts 185°
2026-05-07 12:09 35.88447 -115.16256 5745 ft 280 kts 169°
2026-05-07 12:10 35.86533 -115.15839 6824 ft 280 kts 170°
2026-05-07 12:10 35.84578 -115.15535 7807 ft 286 kts 173°
2026-05-07 12:10 35.82578 -115.15288 8888 ft 292 kts 173°
2026-05-07 12:10 35.80540 -115.14999 9894 ft 299 kts 171°
2026-05-07 12:11 35.78426 -115.14671 10507 ft 317 kts 171°
2026-05-07 12:11 35.76175 -115.14336 10738 ft 344 kts 172°
2026-05-07 12:11 35.73706 -115.14669 10802 ft 372 kts 200°
2026-05-07 12:11 35.71598 -115.16468 11677 ft 370 kts 228°
2026-05-07 12:12 35.70325 -115.19195 12449 ft 371 kts 252°
2026-05-07 12:12 35.69711 -115.22276 13211 ft 372 kts 261°
2026-05-07 12:12 35.69206 -115.25412 13944 ft 377 kts 260°
2026-05-07 12:12 35.68393 -115.28519 14467 ft 388 kts 244°
2026-05-07 12:13 35.66756 -115.31178 15110 ft 391 kts 229°
2026-05-07 12:13 35.64823 -115.33559 15744 ft 396 kts 224°
2026-05-07 12:13 35.62785 -115.35870 16394 ft 401 kts 220°
2026-05-07 12:13 35.60371 -115.37618 16940 ft 406 kts 201°
2026-05-07 12:14 35.57624 -115.38425 17654 ft 407 kts 183°
2026-05-07 12:14 35.54824 -115.38375 18353 ft 409 kts 174°
2026-05-07 12:14 35.51971 -115.38168 18999 ft 413 kts 174°
2026-05-07 12:14 35.49084 -115.37940 19658 ft 417 kts 174°
2026-05-07 12:15 35.46163 -115.37731 20337 ft 422 kts 175°
2026-05-07 12:15 35.43220 -115.37534 21015 ft 426 kts 175°
2026-05-07 12:15 35.40234 -115.37324 21696 ft 431 kts 174°
2026-05-07 12:15 35.37225 -115.37104 22376 ft 435 kts 174°
2026-05-07 12:16 35.34189 -115.36887 23060 ft 440 kts 175°
2026-05-07 12:16 35.31113 -115.36674 23722 ft 445 kts 175°
2026-05-07 12:16 35.28048 -115.36458 24280 ft 449 kts 175°
2026-05-07 12:16 35.24915 -115.36235 24856 ft 453 kts 175°
2026-05-07 12:17 35.21757 -115.36012 25398 ft 457 kts 175°
2026-05-07 12:17 35.18572 -115.35788 25953 ft 461 kts 175°
2026-05-07 12:17 35.15356 -115.35561 26510 ft 465 kts 175°
2026-05-07 12:17 35.12110 -115.35332 27039 ft 469 kts 175°
2026-05-07 12:18 35.08840 -115.35103 27577 ft 473 kts 175°
2026-05-07 12:18 35.05537 -115.34874 28123 ft 477 kts 175°
2026-05-07 12:18 35.02206 -115.34643 28650 ft 481 kts 175°
2026-05-07 12:18 34.98839 -115.34408 29181 ft 486 kts 175°
2026-05-07 12:19 34.95449 -115.34172 29706 ft 490 kts 175°
2026-05-07 12:19 34.92022 -115.33934 30149 ft 495 kts 175°
2026-05-07 12:19 34.88567 -115.33695 30579 ft 499 kts 175°
2026-05-07 12:19 34.85091 -115.33454 30994 ft 502 kts 175°
2026-05-07 12:20 34.81602 -115.33255 31602 ft 501 kts 178°
2026-05-07 12:20 34.78125 -115.33602 32188 ft 502 kts 189°
2026-05-07 12:20 34.74735 -115.34581 32805 ft 500 kts 198°
2026-05-07 12:20 34.71506 -115.35984 33421 ft 498 kts 201°
2026-05-07 12:21 34.68241 -115.37420 34021 ft 499 kts 201°
2026-05-07 12:21 34.64966 -115.38842 34549 ft 499 kts 201°
2026-05-07 12:21 34.61703 -115.40264 35128 ft 498 kts 201°
2026-05-07 12:21 34.58460 -115.41686 35709 ft 492 kts 201°
2026-05-07 12:22 34.55213 -115.43109 35856 ft 502 kts 201°
2026-05-07 12:22 34.51882 -115.44563 35858 ft 515 kts 201°
2026-05-07 12:22 34.48466 -115.46049 35861 ft 527 kts 201°
2026-05-07 12:23 34.41439 -115.49107 35872 ft 545 kts 201°
2026-05-07 12:23 34.34228 -115.52253 35871 ft 555 kts 202°
2026-05-07 12:24 34.27406 -115.56625 35865 ft 556 kts 214°
2026-05-07 12:24 34.24251 -115.59143 35873 ft 538 kts 216°
2026-05-07 12:24 34.21055 -115.61499 35869 ft 543 kts 210°
2026-05-07 12:25 34.13976 -115.64994 35892 ft 555 kts 200°
2026-05-07 12:25 34.06691 -115.68205 35904 ft 559 kts 204°
2026-05-07 12:26 33.99570 -115.71827 35411 ft 537 kts 202°
2026-05-07 12:26 33.96138 -115.73344 34721 ft 515 kts 201°
2026-05-07 12:26 33.92836 -115.74844 34058 ft 502 kts 203°
2026-05-07 12:26 33.89614 -115.76440 33375 ft 500 kts 204°
2026-05-07 12:27 33.86380 -115.78032 32717 ft 503 kts 202°
2026-05-07 12:27 33.83094 -115.79555 32051 ft 505 kts 201°
2026-05-07 12:27 33.79856 -115.81043 31383 ft 506 kts 201°
2026-05-07 12:27 33.76589 -115.82603 30712 ft 507 kts 202°
2026-05-07 12:28 33.73310 -115.84187 30128 ft 503 kts 201°
2026-05-07 12:28 33.70061 -115.85719 29429 ft 499 kts 201°
2026-05-07 12:28 33.66833 -115.87219 28774 ft 494 kts 201°
2026-05-07 12:28 33.63637 -115.88724 28127 ft 491 kts 201°
2026-05-07 12:29 33.60481 -115.90226 27482 ft 486 kts 201°
2026-05-07 12:29 33.57348 -115.91705 26842 ft 481 kts 201°
2026-05-07 12:29 33.54244 -115.93156 26213 ft 476 kts 200°
2026-05-07 12:29 33.51259 -115.94820 25539 ft 472 kts 212°
2026-05-07 12:30 33.48691 -115.97221 24978 ft 466 kts 220°
2026-05-07 12:30 33.46224 -115.99717 24374 ft 462 kts 221°
2026-05-07 12:30 33.43808 -116.02159 23784 ft 458 kts 220°
2026-05-07 12:30 33.41365 -116.04582 23136 ft 454 kts 220°
2026-05-07 12:31 33.38944 -116.06976 22540 ft 450 kts 220°
2026-05-07 12:31 33.36552 -116.09364 21966 ft 445 kts 220°
2026-05-07 12:31 33.34180 -116.11742 21373 ft 443 kts 220°
2026-05-07 12:31 33.31820 -116.14087 20803 ft 439 kts 220°
2026-05-07 12:32 33.29492 -116.16391 20230 ft 435 kts 219°
2026-05-07 12:32 33.27158 -116.18709 19666 ft 432 kts 220°
2026-05-07 12:32 33.24859 -116.20998 19101 ft 428 kts 220°
2026-05-07 12:32 33.22578 -116.23262 18542 ft 425 kts 219°
2026-05-07 12:33 33.18074 -116.27721 17412 ft 415 kts 219°
2026-05-07 12:33 33.15868 -116.29906 16870 ft 410 kts 219°
2026-05-07 12:33 33.13708 -116.32044 16338 ft 405 kts 219°
2026-05-07 12:34 33.11551 -116.34177 15818 ft 401 kts 219°
2026-05-07 12:34 33.09412 -116.36288 15293 ft 396 kts 219°
2026-05-07 12:34 33.07302 -116.38372 14796 ft 392 kts 219°
2026-05-07 12:34 33.05215 -116.40431 14281 ft 387 kts 218°
2026-05-07 12:35 33.03153 -116.42463 13771 ft 382 kts 218°
2026-05-07 12:35 33.01109 -116.44477 13243 ft 381 kts 218°
2026-05-07 12:35 32.99079 -116.46477 12754 ft 379 kts 218°
2026-05-07 12:35 32.97057 -116.48467 12260 ft 375 kts 218°
2026-05-07 12:36 32.95039 -116.50452 11769 ft 374 kts 218°
2026-05-07 12:36 32.93038 -116.52419 11286 ft 366 kts 218°
2026-05-07 12:36 32.91144 -116.54287 10819 ft 342 kts 218°
2026-05-07 12:36 32.89386 -116.56017 10397 ft 323 kts 218°
2026-05-07 12:37 32.87689 -116.57682 9994 ft 311 kts 217°
2026-05-07 12:37 32.86027 -116.59303 9572 ft 307 kts 217°
2026-05-07 12:37 32.84390 -116.60908 9173 ft 303 kts 218°
2026-05-07 12:37 32.83318 -116.61961 8910 ft 301 kts 218°
2026-05-07 12:38 32.81161 -116.64078 8390 ft 298 kts 218°
2026-05-07 12:38 32.80103 -116.65112 8131 ft 297 kts 218°
2026-05-07 12:38 32.78560 -116.66721 7714 ft 294 kts 226°
2026-05-07 12:38 32.77614 -116.68853 7294 ft 292 kts 255°
2026-05-07 12:39 32.77461 -116.72001 6849 ft 288 kts 272°
2026-05-07 12:39 32.77503 -116.73608 6608 ft 287 kts 272°
2026-05-07 12:39 32.77557 -116.75976 6220 ft 285 kts 272°
2026-05-07 12:39 32.77589 -116.78266 6183 ft 279 kts 271°
2026-05-07 12:40 32.77620 -116.80585 6182 ft 282 kts 272°
2026-05-07 12:40 32.77518 -116.82913 6045 ft 286 kts 258°
2026-05-07 12:40 32.76577 -116.84974 5713 ft 285 kts 229°
2026-05-07 12:40 32.75023 -116.86369 5402 ft 273 kts 211°
2026-05-07 12:41 32.73616 -116.87673 5018 ft 245 kts 229°
2026-05-07 12:41 32.72878 -116.89414 4694 ft 232 kts 256°
2026-05-07 12:41 32.72820 -116.91287 4407 ft 226 kts 281°
2026-05-07 12:41 32.73355 -116.93015 4103 ft 222 kts 298°
2026-05-07 12:42 32.74038 -116.94661 3828 ft 222 kts 297°
2026-05-07 12:42 32.74687 -116.96304 3542 ft 213 kts 297°
2026-05-07 12:42 32.75285 -116.97835 3262 ft 198 kts 297°
2026-05-07 12:42 32.75869 -116.99324 3005 ft 200 kts 297°
2026-05-07 12:43 32.76455 -117.00817 2746 ft 199 kts 297°
2026-05-07 12:43 32.77024 -117.02272 2469 ft 188 kts 296°
2026-05-07 12:43 32.77567 -117.03660 2220 ft 177 kts 296°
2026-05-07 12:43 32.78086 -117.04986 1991 ft 165 kts 296°
2026-05-07 12:44 32.78536 -117.06135 1783 ft 151 kts 295°
2026-05-07 12:44 32.78975 -117.07253 1588 ft 151 kts 295°
2026-05-07 12:44 32.79420 -117.08379 1381 ft 144 kts 295°
2026-05-07 12:44 32.79813 -117.09378 1187 ft 127 kts 295°
2026-05-07 12:45 32.80180 -117.10314 1028 ft 123 kts 295°
2026-05-07 12:45 32.80539 -117.11232 872 ft 121 kts 295°
2026-05-07 12:45 32.80904 -117.12143 706 ft 122 kts 295°
2026-05-07 12:45 32.81263 -117.13053 538 ft 121 kts 296°
2026-05-07 12:46 32.81611 -117.13941 432 ft 111 kts 295°
2026-05-07 12:46 32.81807 -117.14476 424 ft 9 kts 251°
2026-05-07 12:46 32.81749 -117.14499 424 ft 16 kts 202°
2026-05-07 12:46 32.81639 -117.14557 421 ft 13 kts 187°
2026-05-07 12:47 32.81600 -117.14495 421 ft 9 kts 114°
2026-05-07 12:47 32.81569 -117.14417 420 ft 16 kts 116°
2026-05-07 12:47 32.81515 -117.14279 427 ft 18 kts 114°
2026-05-07 12:47 32.81456 -117.14152 426 ft 17 kts 134°
2026-05-07 12:48 32.81395 -117.14110 420 ft 7 kts 184°
2026-05-07 12:48 32.81376 -117.14126 426 ft 2 kts 217°